map of WMH home
WMH - Airport
Location
City:  Mountain Home, Arkansas, United States
Name:Baxter County Airport
Old (Alt.):Ozark Regional Airport
ICAO:KBPK
IATA:WMH
FAA LID:BPK

Details
Type:Airport (Airfield)
Use:Public/Civil
Latitude:3622'08"N (36.368942)
Longitude:9228'14"W (-92.470527)
Datum:WGS 1984
Elevation:927 ft (283 m)
Variation:0.27E (WMM2015 magnetic declination)
-0.10 annual change
Runways:1
Longest:5001 × 75 ft (1524 × 23 m), paved

Time
Time Zone:UTC-6 (DST-5)
Local Time:

Weather
METAR:KBPK 221553Z AUTO VRB03KT 10SM BKN023 26/21 A3007 RMK AO2 SLP171 T02610206
TAF:KBPK 221120Z 2212/2312 00000KT P6SM FEW003
TEMPO 2212/2214 1/2SM FG BKN005
FM221400 13004KT P6SM SCT020 BKN060
FM230000 00000KT P6SM SCT250
FM230600 00000KT 2SM BR FEW250

Related Locations
Nearby:
Farthest:YAUG: 10882 mi / 17513 km
Augusta [Augusta Airport], WA, AU

Find:

   beyond  
but within

Other Information
Maps:
NOTAMs:
Links:
Sources:

  
flag of United States
flag of Arkansas
  

Sectional Chart

Flight Planning
at skyvector.com

Satellite Image

Google Maps Satellite view

 

Copyright © 2004-2018 Karl L. Swartz. All rights reserved.
The Great Circle Mapper name and logo are trademarks of the Great Circle Mapper.
All other trademarks mentioned herein belong to their respective owners.
Please see credits for attibutions and further copyright information.

  Follow gcmap on Facebook Follow gcmap on Twitter Follow gcmap on Google+ GCmap on LinkedIn

hCard Microformat

Geo Microformat